SCP
0 0 0 0 0 0 1 2 1 1 0 0 1 0 0 0 0 -0 -0 0 0 0 0 0 0 0 -0 -0 0 0 0 0 -0 0 0 -0 -0 -0
1 0 0 1 1 0 1 1 1 1 1 1 1 1 0 0 0 0 0 0 0 0 0 0 0 0 0 0 0 0 0 0 0 0 0 0 0 0
1 1 1 1 1 1 0 1 1 2 1 0 1 1 0 0 0 0 0 0 1 0 0 0 0 0 0 0 0 0 0 0 0 0 0 0 0 0
0 0 1 0 1 1 1 1 1 1 1 0 1 1 1 1 1 1 1 1 0 0 0 0 0 0 0 0 0 0 0 0 0 0 0 0 0 0
0 0 0 1 1 1 1 1 1 1 1 1 0 1 1 1 1 0 0 0 0 0 0 0 0 0 0 0 0 0 0 0 0 0 0 0 0 0
0 0 0 0 0 1 1 1 1 1 1 1 1 1 1 1 1 1 1 1 0 0 0 0 0 0 0 0 0 0 0 0 0 0 0 0 0 0
0 0 0 0 0 0 1 1 1 1 1 1 1 1 1 1 1 1 1 1 0 1 1 0 -0 0 0 0 0 -0 0 0 0 0 0 0 0 0
0 0 0 0 0 0 0 0 0 1 1 1 1 1 1 1 1 1 1 1 1 1 1 1 0 0 0 0 0 0 0 0 0 0 0 0 0 0
0 0 0 0 0 0 0 0 0 0 0 1 1 1 1 1 1 1 1 1 1 1 1 1 0 0 0 0 0 -0 0 0 0 0 0 0 0 0
0 0 0 0 0 0 0 0 0 0 1 1 1 1 1 1 1 1 1 1 1 1 1 1 1 1 0 0 0 -0 0 0 0 0 0 0 0 0
0 0 0 0 0 0 0 0 1 1 0 0 0 0 0 0 0 0 0 0 0 1 1 1 1 1 1 0 0 0 0 0 0 0 0 0 0 0
0 0 0 0 0 0 0 0 0 1 1 1 1 0 0 0 0 0 1 1 1 1 1 1 1 1 1 1 1 1 0 0 0 0 0 0 0 0
0 0 0 0 0 0 0 0 0 0 0 0 1 0 0 1 1 1 1 0 0 0 0 0 0 0 0 0 0 0 1 1 0 0 0 0 0 0
0 0 0 0 0 0 0 0 0 0 1 1 1 0 0 0 0 1 1 0 0 0 1 0 0 1 1 0 0 0 0 0 0 0 1 0 0 0
0 0 0 0 0 0 0 0 0 0 0 0 0 0 0 0 0 0 0 0 0 1 1 1 0 0 0 0 0 0 0 0 1 1 1 1 0 0
0 0 0 0 0 0 0 0 0 0 0 0 0 0 0 0 0 0 0 0 0 0 0 0 1 0 0 0 0 0 0 0 0 0 1 1 1 0
0 0 0 0 0 0 0 0 0 0 0 0 0 0 0 0 0 0 0 0 0 0 0 0 0 0 0 0 0 0 0 0 0 0 0 0 1 0
0 0 0 0 0 0 0 0 0 0 0 0 0 0 0 0 0 0 0 0 0 0 0 0 0 0 0 0 0 0 0 0 0 0 0 0 0 0
0 0 0 0 0 0 0 0 0 0 0 0 0 0 0 0 0 0 0 0 0 0 0 0 0 0 0 0 -0 0 0 0 0 0 0 0 0 0
0 0 0 0 0 0 0 0 0 0 0 0 0 0 0 0 0 0 0 0 0 0 0 0 0 0 0 0 -0 -0 -0 -0 0 0 0 0 0 0
0 0 0 0 0 0 0 0 0 0 0 0 0 0 0 0 0 0 0 0 0 0 0 0 0 0 -0 -0 -0 -0 -0 -0 0 0 0 0 0 0
0 0 0 0 0 0 0 0 0 0 0 0 0 0 0 0 0 0 0 0 0 0 0 0 0 0 0 0 -0 -0 -0 -0 -0 0 0 0 0 0
0 0 0 0 0 0 0 0 0 0 0 0 0 0 0 0 0 0 0 0 0 0 0 0 0 0 0 0 0 0 -0 0 -0 0 0 0 0 0
Wind_Speed_500mb
42 39 37 44 45 45 42 43 45 46 48 39 40 41 29 25 51 16 20 40 35 33 33 32 37 44 44 47 46 42 43 43 42 42 41 40 41 40
34 35 37 43 40 40 42 45 43 46 54 49 38 37 37 27 24 31 27 33 44 53 43 39 35 39 40 45 48 48 46 47 44 42 44 44 43 42
32 34 35 36 39 44 48 48 49 49 50 57 46 35 40 41 29 29 32 39 52 48 43 52 45 40 41 41 44 48 46 49 49 46 45 45 45 46
36 36 35 36 38 41 42 46 49 53 55 62 56 48 48 43 42 41 41 43 47 48 49 46 44 47 48 45 47 48 49 52 55 54 51 51 50 50
35 35 31 30 37 37 39 42 44 46 47 51 60 58 55 54 39 41 40 47 46 34 46 58 46 45 47 55 51 52 51 51 54 56 55 55 56 54
42 40 40 38 37 40 41 38 39 40 43 49 52 52 45 48 40 40 48 51 50 44 37 39 41 50 55 55 59 60 61 55 57 58 58 57 57 58
33 31 30 27 39 40 40 43 42 42 40 42 46 48 51 45 38 39 52 57 57 53 47 42 43 49 38 34 59 63 63 62 60 58 57 59 58 58
32 32 30 28 19 35 39 35 37 41 44 47 52 49 48 48 46 43 46 45 51 42 32 45 39 54 46 56 67 59 70 66 64 60 58 58 59 58
30 33 34 28 35 40 42 36 36 38 42 44 49 53 52 45 43 45 45 45 48 47 41 47 42 50 46 19 33 39 45 39 42 54 63 65 64 64
30 30 29 30 31 36 39 42 38 34 30 32 34 34 30 30 31 32 37 43 49 51 44 49 43 46 39 39 41 37 39 45 50 49 52 51 62 70
17 27 30 28 32 37 37 33 32 30 27 33 32 23 25 24 24 29 31 29 31 33 25 31 37 45 46 46 38 42 52 50 52 50 46 53 61 62
17 21 34 27 26 27 24 23 24 26 26 22 16 18 18 19 24 26 22 25 29 33 17 18 30 34 41 42 35 43 35 43 49 49 45 41 41 52
27 23 26 30 26 21 21 22 20 20 14 14 15 25 6 18 4 7 16 25 27 28 40 46 44 44 42 50 46 36 35 40 45 41 45 54 49 49
29 33 30 27 23 20 21 21 18 15 13 15 21 23 22 15 14 19 24 28 26 27 30 32 34 32 40 45 52 52 49 52 51 59 64 60 52 52
26 29 26 26 25 16 25 28 25 20 18 16 23 28 29 34 37 33 29 31 29 27 31 33 39 37 39 45 52 52 49 50 49 48 51 57 62 57
19 14 23 16 16 25 26 29 25 21 15 20 20 23 19 20 21 24 30 30 33 35 28 21 26 32 36 35 43 48 46 50 57 54 52 49 58 61
12 15 22 22 18 17 17 20 21 19 18 21 23 22 21 23 21 24 26 30 30 38 44 46 43 42 45 41 42 44 49 56 58 51 50 49 47 54
16 21 20 18 22 25 23 22 22 26 29 28 30 32 32 32 31 27 27 29 34 35 38 42 47 55 60 56 40 43 42 33 32 30 41 49 53 50
18 21 22 23 19 22 19 20 15 20 19 15 15 23 21 23 25 28 29 29 37 39 45 51 49 44 50 54 66 51 59 57 54 54 51 52 63 62
16 16 17 16 17 17 17 16 23 18 28 24 20 24 26 29 29 31 33 39 45 49 50 45 39 39 47 50 68 85 73 71 64 63 61 53 54 55
15 14 17 17 17 20 18 17 20 19 26 29 26 28 29 31 32 34 37 40 44 42 48 46 45 56 68 78 86 96 96 72 59 61 59 55 61 65
18 16 17 19 17 19 22 24 22 21 24 26 28 33 37 42 43 44 45 47 51 52 51 55 57 61 66 64 74 79 84 86 74 64 73 66 64 73
21 22 23 18 18 21 24 25 22 25 27 29 30 34 40 48 47 52 54 54 58 65 58 62 71 71 74 75 77 80 76 83 83 79 66 52 65 57
Wind_Direction_500mb
279 276 275 266 257 256 267 271 267 270 285 287 277 289 305 303 245 348 244 265 266 262 264 261 252 248 248 242 239 243 246 244 241 241 240 237 239 237
292 283 276 276 273 262 260 266 268 263 265 273 277 292 305 298 281 266 252 264 272 262 256 252 255 257 253 246 241 245 246 238 238 238 241 239 238 238
290 292 291 282 276 265 262 263 263 262 265 281 274 270 278 282 284 285 271 274 273 271 265 254 252 255 249 250 245 244 243 237 237 237 238 240 240 240
287 288 297 297 290 282 272 265 263 264 267 269 274 268 260 270 274 273 268 270 274 262 267 263 250 253 256 254 250 251 247 242 240 239 242 243 242 241
272 267 277 292 295 290 285 277 272 267 265 266 272 273 274 273 271 264 271 271 278 271 267 271 270 257 257 256 252 247 244 243 243 242 242 243 243 244
283 283 265 269 282 302 291 290 282 276 270 267 272 276 275 282 272 263 264 266 274 279 272 275 275 276 265 261 256 254 244 237 241 244 244 241 241 243
301 291 280 270 280 286 297 301 292 280 275 274 277 278 280 279 276 275 264 266 268 267 268 293 230 255 262 271 272 254 251 249 244 243 245 245 243 242
335 328 304 272 316 287 294 277 281 284 278 277 277 279 280 284 282 273 270 267 273 276 278 259 261 255 260 275 273 258 259 258 253 250 250 248 247 244
336 326 319 305 277 286 284 292 290 283 277 279 274 273 281 280 280 274 271 273 274 277 277 270 265 268 273 288 234 253 247 256 263 258 253 250 249 249
332 323 310 312 299 292 297 289 293 296 304 288 277 277 282 285 281 279 277 278 277 280 283 274 275 267 279 276 277 263 253 264 267 261 262 262 249 250
335 340 320 310 295 292 304 302 297 294 280 286 288 275 296 300 296 289 289 290 294 296 303 284 289 288 273 258 250 273 273 264 270 261 260 269 270 263
358 335 330 325 317 312 314 311 307 306 307 305 293 305 311 306 300 286 296 276 272 288 271 286 279 305 302 283 267 262 267 271 272 259 260 261 273 265
342 325 317 326 327 324 319 322 323 320 319 317 321 320 33 19 314 287 274 288 299 301 311 307 306 296 290 295 281 262 265 265 275 266 266 271 268 268
324 315 315 315 312 315 305 311 329 329 328 321 290 295 300 301 316 313 316 320 320 306 299 299 301 302 302 297 294 292 284 281 275 270 271 269 269 268
315 328 333 324 325 320 314 316 314 298 299 295 290 293 298 301 302 311 300 293 289 300 314 325 317 312 298 293 296 297 299 294 292 287 277 267 271 270
341 329 343 329 324 314 312 312 324 331 343 327 326 319 323 317 319 309 306 301 297 289 279 307 306 312 306 303 303 297 297 297 302 295 291 285 273 267
350 3 336 335 334 337 344 353 354 343 330 327 330 324 316 314 303 303 307 308 312 309 302 290 281 281 285 291 297 300 303 299 302 297 298 289 289 276
19 354 340 348 359 355 8 7 5 350 4 16 356 359 360 1 352 348 338 332 325 324 326 323 313 299 289 276 272 296 289 298 295 297 283 292 288 286
24 346 359 4 5 4 8 1 357 358 334 339 6 354 342 338 343 345 330 332 330 325 311 309 316 319 312 302 289 272 291 285 291 286 296 302 290 284
5 338 346 348 340 333 339 344 338 350 344 349 359 334 331 336 339 333 334 330 327 323 324 325 322 308 313 318 308 293 287 290 298 296 293 295 287 284
321 324 328 327 324 321 325 333 332 342 347 345 342 336 332 327 324 327 325 322 311 315 322 318 304 293 295 293 293 290 286 278 259 277 279 284 279 283
304 309 307 302 309 327 329 333 338 339 329 328 325 324 325 323 322 315 312 313 312 321 316 302 313 321 317 312 305 306 303 298 289 275 255 262 275 283
298 307 308 330 333 322 318 319 327 322 322 320 312 307 309 316 317 318 315 310 311 318 317 320 323 322 316 306 301 302 298 296 301 301 283 252 244 250
Wind_Speed_850mb
42 39 37 44 45 45 42 43 45 46 48 39 40 41 29 25 51 16 20 40 35 33 33 32 37 44 44 47 46 42 43 43 42 42 41 40 41 40
34 35 37 43 40 40 42 45 43 46 54 49 38 37 37 27 24 31 27 33 44 53 43 39 35 39 40 45 48 48 46 47 44 42 44 44 43 42
32 34 35 36 39 44 48 48 49 49 50 57 46 35 40 41 29 29 32 39 52 48 43 52 45 40 41 41 44 48 46 49 49 46 45 45 45 46
36 36 35 36 38 41 42 46 49 53 55 62 56 48 48 43 42 41 41 43 47 48 49 46 44 47 48 45 47 48 49 52 55 54 51 51 50 50
35 35 31 30 37 37 39 42 44 46 47 51 60 58 55 54 39 41 40 47 46 34 46 58 46 45 47 55 51 52 51 51 54 56 55 55 56 54
42 40 40 38 37 40 41 38 39 40 43 49 52 52 45 48 40 40 48 51 50 44 37 39 41 50 55 55 59 60 61 55 57 58 58 57 57 58
33 31 30 27 39 40 40 43 42 42 40 42 46 48 51 45 38 39 52 57 57 53 47 42 43 49 38 34 59 63 63 62 60 58 57 59 58 58
32 32 30 28 19 35 39 35 37 41 44 47 52 49 48 48 46 43 46 45 51 42 32 45 39 54 46 56 67 59 70 66 64 60 58 58 59 58
30 33 34 28 35 40 42 36 36 38 42 44 49 53 52 45 43 45 45 45 48 47 41 47 42 50 46 19 33 39 45 39 42 54 63 65 64 64
30 30 29 30 31 36 39 42 38 34 30 32 34 34 30 30 31 32 37 43 49 51 44 49 43 46 39 39 41 37 39 45 50 49 52 51 62 70
17 27 30 28 32 37 37 33 32 30 27 33 32 23 25 24 24 29 31 29 31 33 25 31 37 45 46 46 38 42 52 50 52 50 46 53 61 62
17 21 34 27 26 27 24 23 24 26 26 22 16 18 18 19 24 26 22 25 29 33 17 18 30 34 41 42 35 43 35 43 49 49 45 41 41 52
27 23 26 30 26 21 21 22 20 20 14 14 15 25 6 18 4 7 16 25 27 28 40 46 44 44 42 50 46 36 35 40 45 41 45 54 49 49
29 33 30 27 23 20 21 21 18 15 13 15 21 23 22 15 14 19 24 28 26 27 30 32 34 32 40 45 52 52 49 52 51 59 64 60 52 52
26 29 26 26 25 16 25 28 25 20 18 16 23 28 29 34 37 33 29 31 29 27 31 33 39 37 39 45 52 52 49 50 49 48 51 57 62 57
19 14 23 16 16 25 26 29 25 21 15 20 20 23 19 20 21 24 30 30 33 35 28 21 26 32 36 35 43 48 46 50 57 54 52 49 58 61
12 15 22 22 18 17 17 20 21 19 18 21 23 22 21 23 21 24 26 30 30 38 44 46 43 42 45 41 42 44 49 56 58 51 50 49 47 54
16 21 20 18 22 25 23 22 22 26 29 28 30 32 32 32 31 27 27 29 34 35 38 42 47 55 60 56 40 43 42 33 32 30 41 49 53 50
18 21 22 23 19 22 19 20 15 20 19 15 15 23 21 23 25 28 29 29 37 39 45 51 49 44 50 54 66 51 59 57 54 54 51 52 63 62
16 16 17 16 17 17 17 16 23 18 28 24 20 24 26 29 29 31 33 39 45 49 50 45 39 39 47 50 68 85 73 71 64 63 61 53 54 55
15 14 17 17 17 20 18 17 20 19 26 29 26 28 29 31 32 34 37 40 44 42 48 46 45 56 68 78 86 96 96 72 59 61 59 55 61 65
18 16 17 19 17 19 22 24 22 21 24 26 28 33 37 42 43 44 45 47 51 52 51 55 57 61 66 64 74 79 84 86 74 64 73 66 64 73
21 22 23 18 18 21 24 25 22 25 27 29 30 34 40 48 47 52 54 54 58 65 58 62 71 71 74 75 77 80 76 83 83 79 66 52 65 57
Wind_Direction_850mb
279 276 275 266 257 256 267 271 267 270 285 287 277 289 305 303 245 348 244 265 266 262 264 261 252 248 248 242 239 243 246 244 241 241 240 237 239 237
292 283 276 276 273 262 260 266 268 263 265 273 277 292 305 298 281 266 252 264 272 262 256 252 255 257 253 246 241 245 246 238 238 238 241 239 238 238
290 292 291 282 276 265 262 263 263 262 265 281 274 270 278 282 284 285 271 274 273 271 265 254 252 255 249 250 245 244 243 237 237 237 238 240 240 240
287 288 297 297 290 282 272 265 263 264 267 269 274 268 260 270 274 273 268 270 274 262 267 263 250 253 256 254 250 251 247 242 240 239 242 243 242 241
272 267 277 292 295 290 285 277 272 267 265 266 272 273 274 273 271 264 271 271 278 271 267 271 270 257 257 256 252 247 244 243 243 242 242 243 243 244
283 283 265 269 282 302 291 290 282 276 270 267 272 276 275 282 272 263 264 266 274 279 272 275 275 276 265 261 256 254 244 237 241 244 244 241 241 243
301 291 280 270 280 286 297 301 292 280 275 274 277 278 280 279 276 275 264 266 268 267 268 293 230 255 262 271 272 254 251 249 244 243 245 245 243 242
335 328 304 272 316 287 294 277 281 284 278 277 277 279 280 284 282 273 270 267 273 276 278 259 261 255 260 275 273 258 259 258 253 250 250 248 247 244
336 326 319 305 277 286 284 292 290 283 277 279 274 273 281 280 280 274 271 273 274 277 277 270 265 268 273 288 234 253 247 256 263 258 253 250 249 249
332 323 310 312 299 292 297 289 293 296 304 288 277 277 282 285 281 279 277 278 277 280 283 274 275 267 279 276 277 263 253 264 267 261 262 262 249 250
335 340 320 310 295 292 304 302 297 294 280 286 288 275 296 300 296 289 289 290 294 296 303 284 289 288 273 258 250 273 273 264 270 261 260 269 270 263
358 335 330 325 317 312 314 311 307 306 307 305 293 305 311 306 300 286 296 276 272 288 271 286 279 305 302 283 267 262 267 271 272 259 260 261 273 265
342 325 317 326 327 324 319 322 323 320 319 317 321 320 33 19 314 287 274 288 299 301 311 307 306 296 290 295 281 262 265 265 275 266 266 271 268 268
324 315 315 315 312 315 305 311 329 329 328 321 290 295 300 301 316 313 316 320 320 306 299 299 301 302 302 297 294 292 284 281 275 270 271 269 269 268
315 328 333 324 325 320 314 316 314 298 299 295 290 293 298 301 302 311 300 293 289 300 314 325 317 312 298 293 296 297 299 294 292 287 277 267 271 270
341 329 343 329 324 314 312 312 324 331 343 327 326 319 323 317 319 309 306 301 297 289 279 307 306 312 306 303 303 297 297 297 302 295 291 285 273 267
350 3 336 335 334 337 344 353 354 343 330 327 330 324 316 314 303 303 307 308 312 309 302 290 281 281 285 291 297 300 303 299 302 297 298 289 289 276
19 354 340 348 359 355 8 7 5 350 4 16 356 359 360 1 352 348 338 332 325 324 326 323 313 299 289 276 272 296 289 298 295 297 283 292 288 286
24 346 359 4 5 4 8 1 357 358 334 339 6 354 342 338 343 345 330 332 330 325 311 309 316 319 312 302 289 272 291 285 291 286 296 302 290 284
5 338 346 348 340 333 339 344 338 350 344 349 359 334 331 336 339 333 334 330 327 323 324 325 322 308 313 318 308 293 287 290 298 296 293 295 287 284
321 324 328 327 324 321 325 333 332 342 347 345 342 336 332 327 324 327 325 322 311 315 322 318 304 293 295 293 293 290 286 278 259 277 279 284 279 283
304 309 307 302 309 327 329 333 338 339 329 328 325 324 325 323 322 315 312 313 312 321 316 302 313 321 317 312 305 306 303 298 289 275 255 262 275 283
298 307 308 330 333 322 318 319 327 322 322 320 312 307 309 316 317 318 315 310 311 318 317 320 323 322 316 306 301 302 298 296 301 301 283 252 244 250